Time,TemperatureF,DewpointF,PressureIn,WindDirection,WindDirectionDegrees,WindSpeedMPH,WindSpeedGustMPH,Humidity,HourlyPrecipIn,Conditions,Clouds,dailyrainin,SoftwareType,DateUTC
2013-02-08 00:03:00,78.6,68.8,29.62,SE,135,2.0,2.0,72,0.00,,,0.00,VWS V14.01,2013-02-07 14:03:00,
2013-02-08 00:08:00,78.4,68.7,29.62,SE,135,2.0,2.0,72,0.00,,,0.00,VWS V14.01,2013-02-07 14:08:00,
2013-02-08 00:13:00,78.4,69.1,29.62,SE,135,2.0,2.0,73,0.00,,,0.00,VWS V14.01,2013-02-07 14:13:00,
2013-02-08 00:18:00,78.1,68.7,29.62,SE,135,2.0,2.0,73,0.00,,,0.00,VWS V14.01,2013-02-07 14:18:00,
2013-02-08 00:23:00,77.9,68.6,29.62,SE,135,2.0,2.0,73,0.00,,,0.00,VWS V14.01,2013-02-07 14:23:00,
2013-02-08 00:28:00,78.1,68.7,29.62,SE,135,2.0,2.0,73,0.00,,,0.00,VWS V14.01,2013-02-07 14:28:00,
2013-02-08 00:33:00,77.7,68.4,29.62,SE,135,2.0,2.0,73,0.00,,,0.00,VWS V14.01,2013-02-07 14:33:00,
2013-02-08 00:38:00,77.5,68.6,29.62,SE,135,2.0,2.0,74,0.00,,,0.00,VWS V14.01,2013-02-07 14:38:00,
2013-02-08 00:43:00,77.7,68.8,29.62,SE,135,2.0,2.0,74,0.00,,,0.00,VWS V14.01,2013-02-07 14:43:00,
2013-02-08 00:48:00,77.9,68.9,29.62,SE,135,2.0,2.0,74,0.00,,,0.00,VWS V14.01,2013-02-07 14:48:00,
2013-02-08 00:53:00,77.7,68.8,29.62,SE,135,2.0,2.0,74,0.00,,,0.00,VWS V14.01,2013-02-07 14:53:00,
2013-02-08 00:58:00,77.7,68.8,29.62,SE,135,2.0,2.0,74,0.00,,,0.00,VWS V14.01,2013-02-07 14:58:00,
2013-02-08 01:03:00,77.5,68.6,29.62,SE,135,2.0,2.0,74,0.00,,,0.00,VWS V14.01,2013-02-07 15:03:00,
2013-02-08 01:08:00,77.7,68.8,29.62,SE,135,2.0,2.0,74,0.00,,,0.00,VWS V14.01,2013-02-07 15:08:00,
2013-02-08 01:13:00,77.4,68.8,29.62,SE,135,2.0,2.0,75,0.00,,,0.00,VWS V14.01,2013-02-07 15:13:00,
2013-02-08 01:18:00,77.2,68.7,29.62,SE,135,2.0,2.0,75,0.00,,,0.00,VWS V14.01,2013-02-07 15:18:00,
2013-02-08 01:23:00,77.2,68.7,29.62,SE,135,2.0,2.0,75,0.00,,,0.00,VWS V14.01,2013-02-07 15:23:00,
2013-02-08 01:28:00,77.0,68.5,29.62,SE,135,2.0,2.0,75,0.00,,,0.00,VWS V14.01,2013-02-07 15:28:00,
2013-02-08 01:33:00,76.8,68.7,29.59,SE,135,2.0,2.0,76,0.00,,,0.00,VWS V14.01,2013-02-07 15:33:00,
2013-02-08 01:38:00,76.8,68.7,29.59,SE,135,2.0,2.0,76,0.00,,,0.00,VWS V14.01,2013-02-07 15:38:00,
2013-02-08 09:49:00,84.7,73.0,29.62,SSE,158,7.8,7.8,68,0.00,,,0.00,VWS V14.01,2013-02-07 23:49:00,
2013-02-08 09:55:00,84.7,73.0,29.62,SSE,158,7.8,7.8,68,0.00,,,0.00,VWS V14.01,2013-02-07 23:55:00,
2013-02-08 10:00:00,84.9,73.2,29.62,SSE,158,8.1,8.1,68,0.00,,,0.00,VWS V14.01,2013-02-08 00:00:00,
2013-02-08 10:05:00,84.6,72.8,29.65,SSE,158,8.1,8.1,68,0.00,,,0.00,VWS V14.01,2013-02-08 00:05:00,
2013-02-08 10:10:00,84.7,73.0,29.65,SE,135,3.8,3.8,68,0.00,,,0.00,VWS V14.01,2013-02-08 00:10:00,
2013-02-08 10:15:00,85.5,73.7,29.65,SE,135,3.4,3.4,68,0.00,,,0.00,VWS V14.01,2013-02-08 00:15:00,
2013-02-08 10:20:00,85.6,73.9,29.65,SSE,158,4.9,4.9,68,0.00,,,0.00,VWS V14.01,2013-02-08 00:20:00,
2013-02-08 10:25:00,85.8,73.6,29.65,SSE,158,4.9,4.9,67,0.00,,,0.00,VWS V14.01,2013-02-08 00:25:00,
2013-02-08 10:30:00,86.9,74.6,29.65,SSE,158,4.9,4.9,67,0.00,,,0.00,VWS V14.01,2013-02-08 00:30:00,
2013-02-08 10:35:00,86.5,74.3,29.65,SSW,202,3.6,3.6,67,0.00,,,0.00,VWS V14.01,2013-02-08 00:35:00,
2013-02-08 10:40:00,87.1,74.3,29.65,South,180,10.5,10.5,66,0.00,,,0.00,VWS V14.01,2013-02-08 00:40:00,
2013-02-08 10:45:00,87.4,74.7,29.65,SSW,202,8.1,8.1,66,0.00,,,0.00,VWS V14.01,2013-02-08 00:45:00,
2013-02-08 10:50:00,87.8,74.6,29.65,East,90,5.8,5.8,65,0.00,,,0.00,VWS V14.01,2013-02-08 00:50:00,
2013-02-08 10:55:00,88.2,74.4,29.65,East,90,5.8,5.8,64,0.00,,,0.00,VWS V14.01,2013-02-08 00:55:00,
2013-02-08 11:00:00,88.0,74.3,29.62,SW,225,2.7,2.7,64,0.00,,,0.00,VWS V14.01,2013-02-08 01:00:00,
2013-02-08 11:05:00,88.3,74.6,29.62,SW,225,2.7,2.7,64,0.00,,,0.00,VWS V14.01,2013-02-08 01:05:00,
2013-02-08 11:10:00,87.8,74.1,29.62,SW,225,5.6,5.6,64,0.00,,,0.00,VWS V14.01,2013-02-08 01:10:00,
2013-02-08 11:15:00,88.5,74.8,29.62,SW,225,5.6,5.6,64,0.00,,,0.00,VWS V14.01,2013-02-08 01:15:00,
2013-02-08 11:20:00,87.6,73.9,29.62,SW,225,5.6,5.6,64,0.00,,,0.00,VWS V14.01,2013-02-08 01:20:00,
2013-02-08 11:25:00,88.0,74.3,29.62,SW,225,5.6,5.6,64,0.00,,,0.00,VWS V14.01,2013-02-08 01:25:00,
2013-02-08 11:30:00,88.9,75.1,29.62,SE,135,7.4,7.4,64,0.00,,,0.00,VWS V14.01,2013-02-08 01:30:00,
2013-02-08 11:35:00,89.1,74.8,29.62,SSW,202,0.0,0.0,63,0.00,,,0.00,VWS V14.01,2013-02-08 01:35:00,
2013-02-08 11:40:00,89.2,74.5,29.62,SSW,202,0.0,0.0,62,0.00,,,0.00,VWS V14.01,2013-02-08 01:40:00,
2013-02-08 11:45:00,88.7,74.0,29.62,South,180,4.5,4.5,62,0.00,,,0.00,VWS V14.01,2013-02-08 01:45:00,
2013-02-08 11:51:00,88.5,74.3,29.62,SSE,158,8.5,8.5,63,0.00,,,0.00,VWS V14.01,2013-02-08 01:51:00,
2013-02-08 11:56:00,88.3,73.7,29.62,SSE,158,8.5,8.5,62,0.00,,,0.00,VWS V14.01,2013-02-08 01:56:00,
2013-02-08 12:01:00,88.5,73.8,29.62,SSE,158,8.5,8.5,62,0.00,,,0.00,VWS V14.01,2013-02-08 02:01:00,
2013-02-08 12:06:00,88.3,74.2,29.62,SSE,158,8.5,8.5,63,0.00,,,0.00,VWS V14.01,2013-02-08 02:06:00,
2013-02-08 12:11:00,87.8,73.6,29.62,SSE,158,8.5,8.5,63,0.00,,,0.00,VWS V14.01,2013-02-08 02:11:00,
2013-02-08 12:16:00,86.9,73.3,29.62,SSE,158,8.5,8.5,64,0.00,,,0.00,VWS V14.01,2013-02-08 02:16:00,
2013-02-08 12:21:00,87.1,73.4,29.62,SSE,158,8.5,8.5,64,0.00,,,0.00,VWS V14.01,2013-02-08 02:21:00,
2013-02-08 12:26:00,88.5,73.8,29.62,SSE,158,8.5,8.5,62,0.00,,,0.00,VWS V14.01,2013-02-08 02:26:00,
2013-02-08 12:31:00,88.9,74.2,29.59,SSE,158,8.5,8.5,62,0.00,,,0.00,VWS V14.01,2013-02-08 02:31:00,
2013-02-08 12:36:00,89.2,74.0,29.59,SSE,158,8.5,8.5,61,0.00,,,0.00,VWS V14.01,2013-02-08 02:36:00,
2013-02-08 12:41:00,88.7,72.5,29.59,SSE,158,8.1,8.1,59,0.00,,,0.00,VWS V14.01,2013-02-08 02:41:00,
2013-02-08 12:46:00,89.2,74.0,29.59,SSE,158,8.1,8.1,61,0.00,,,0.00,VWS V14.01,2013-02-08 02:46:00,
2013-02-08 12:51:00,90.1,74.4,29.59,SSE,158,8.1,8.1,60,0.00,,,0.00,VWS V14.01,2013-02-08 02:51:00,
2013-02-08 12:56:00,90.0,74.2,29.59,SSE,158,8.1,8.1,60,0.00,,,0.00,VWS V14.01,2013-02-08 02:56:00,
2013-02-08 13:01:00,89.6,73.9,29.59,SSE,158,8.1,8.1,60,0.00,,,0.00,VWS V14.01,2013-02-08 03:01:00,
2013-02-08 13:06:00,90.0,73.2,29.59,SSE,158,8.1,8.1,58,0.00,,,0.00,VWS V14.01,2013-02-08 03:06:00,
2013-02-08 13:11:00,90.1,73.4,29.59,SSE,158,8.1,8.1,58,0.00,,,0.00,VWS V14.01,2013-02-08 03:11:00,
2013-02-08 13:17:00,90.3,73.6,29.56,SSE,158,8.1,8.1,58,0.00,,,0.00,VWS V14.01,2013-02-08 03:17:00,
2013-02-08 13:22:00,90.5,73.7,29.56,SSE,158,8.1,8.1,58,0.00,,,0.00,VWS V14.01,2013-02-08 03:22:00,
2013-02-08 13:27:00,91.4,74.6,29.56,SSE,158,8.1,8.1,58,0.00,,,0.00,VWS V14.01,2013-02-08 03:27:00,
2013-02-08 13:32:00,90.1,73.4,29.56,SSE,158,8.1,8.1,58,0.00,,,0.00,VWS V14.01,2013-02-08 03:32:00,
2013-02-08 13:37:00,90.3,73.6,29.56,SSE,158,8.1,8.1,58,0.00,,,0.00,VWS V14.01,2013-02-08 03:37:00,
2013-02-08 13:42:00,90.7,73.4,29.56,SSE,158,8.1,8.1,57,0.00,,,0.00,VWS V14.01,2013-02-08 03:42:00,
2013-02-08 13:47:00,90.0,72.7,29.56,SSE,158,8.1,8.1,57,0.00,,,0.00,VWS V14.01,2013-02-08 03:47:00,
2013-02-08 13:52:00,91.2,73.9,29.56,SSE,158,8.1,8.1,57,0.00,,,0.00,VWS V14.01,2013-02-08 03:52:00,
2013-02-08 13:57:00,90.7,73.9,29.56,SSE,158,8.1,8.1,58,0.00,,,0.00,VWS V14.01,2013-02-08 03:57:00,
2013-02-08 14:02:00,90.3,73.6,29.56,SSE,158,8.1,8.1,58,0.00,,,0.00,VWS V14.01,2013-02-08 04:02:00,
2013-02-08 14:07:00,89.8,73.0,29.56,SSE,158,8.1,8.1,58,0.00,,,0.00,VWS V14.01,2013-02-08 04:07:00,
2013-02-08 14:12:00,90.3,73.6,29.56,SSE,158,8.1,8.1,58,0.00,,,0.00,VWS V14.01,2013-02-08 04:12:00,
2013-02-08 14:17:00,89.2,73.1,29.56,SSE,158,8.1,8.1,59,0.00,,,0.00,VWS V14.01,2013-02-08 04:17:00,
2013-02-08 14:22:00,88.9,72.7,29.56,SSE,158,8.1,8.1,59,0.00,,,0.00,VWS V14.01,2013-02-08 04:22:00,
2013-02-08 14:27:00,89.8,73.0,29.56,SSE,158,8.1,8.1,58,0.00,,,0.00,VWS V14.01,2013-02-08 04:27:00,
2013-02-08 14:33:00,90.1,72.9,29.56,SSE,158,8.1,8.1,57,0.00,,,0.00,VWS V14.01,2013-02-08 04:33:00,
2013-02-08 14:38:00,89.8,72.5,29.56,SSE,158,8.1,8.1,57,0.00,,,0.00,VWS V14.01,2013-02-08 04:38:00,
2013-02-08 14:43:00,90.0,72.7,29.56,SSE,158,8.1,8.1,57,0.00,,,0.00,VWS V14.01,2013-02-08 04:43:00,
2013-02-08 14:48:00,89.8,72.5,29.56,SSE,158,8.1,8.1,57,0.00,,,0.00,VWS V14.01,2013-02-08 04:48:00,
2013-02-08 14:53:00,90.0,72.2,29.56,SSE,158,8.1,8.1,56,0.00,,,0.00,VWS V14.01,2013-02-08 04:53:00,
2013-02-08 14:58:00,90.1,72.3,29.56,SSE,158,8.1,8.1,56,0.00,,,0.00,VWS V14.01,2013-02-08 04:58:00,
2013-02-08 15:00:00,90.1,72.3,29.56,SSE,158,8.1,8.1,56,0.00,,,0.00,VWS V14.01,2013-02-08 05:00:00,
2013-02-08 15:01:00,90.7,72.8,29.56,SSE,158,8.1,8.1,56,0.00,,,0.00,VWS V14.01,2013-02-08 05:01:00,
2013-02-08 15:04:00,90.7,72.8,29.56,SSE,158,8.1,8.1,56,0.00,,,0.00,VWS V14.01,2013-02-08 05:04:00,
2013-02-08 15:09:00,90.7,72.3,29.56,SSE,158,8.1,8.1,55,0.00,,,0.00,VWS V14.01,2013-02-08 05:09:00,
2013-02-08 15:14:00,90.3,72.0,29.56,SSE,158,8.1,8.1,55,0.00,,,0.00,VWS V14.01,2013-02-08 05:14:00,
2013-02-08 15:19:00,90.7,72.8,29.56,SSE,158,8.1,8.1,56,0.00,,,0.00,VWS V14.01,2013-02-08 05:19:00,
2013-02-08 15:24:00,90.5,72.1,29.56,SSE,158,8.1,8.1,55,0.00,,,0.00,VWS V14.01,2013-02-08 05:24:00,
2013-02-08 15:29:00,90.3,72.5,29.56,SSE,158,8.1,8.1,56,0.00,,,0.00,VWS V14.01,2013-02-08 05:29:00,
2013-02-08 15:34:00,90.3,72.5,29.56,SSE,158,8.1,8.1,56,0.00,,,0.00,VWS V14.01,2013-02-08 05:34:00,
2013-02-08 15:39:00,90.5,72.7,29.56,SSE,158,8.1,8.1,56,0.00,,,0.00,VWS V14.01,2013-02-08 05:39:00,
2013-02-08 15:44:00,90.0,72.2,29.56,SSE,158,8.1,8.1,56,0.00,,,0.00,VWS V14.01,2013-02-08 05:44:00,
2013-02-08 15:49:00,89.8,72.0,29.56,SSE,158,8.1,8.1,56,0.00,,,0.00,VWS V14.01,2013-02-08 05:49:00,
2013-02-08 15:54:00,90.1,72.3,29.56,SSE,158,8.1,8.1,56,0.00,,,0.00,VWS V14.01,2013-02-08 05:54:00,
2013-02-08 16:00:00,89.8,72.5,29.56,SSE,158,8.1,8.1,57,0.00,,,0.00,VWS V14.01,2013-02-08 06:00:00,
2013-02-08 16:05:00,89.4,72.7,29.56,SSE,158,8.1,8.1,58,0.00,,,0.00,VWS V14.01,2013-02-08 06:05:00,
2013-02-08 16:10:00,88.7,72.0,29.56,SSE,158,8.1,8.1,58,0.00,,,0.00,VWS V14.01,2013-02-08 06:10:00,
2013-02-08 16:15:00,88.7,72.0,29.56,SSE,158,8.1,8.1,58,0.00,,,0.00,VWS V14.01,2013-02-08 06:15:00,
2013-02-08 16:20:00,88.3,71.7,29.56,SSE,158,8.1,8.1,58,0.00,,,0.00,VWS V14.01,2013-02-08 06:20:00,
2013-02-08 16:25:00,88.7,72.0,29.56,SSE,158,8.1,8.1,58,0.00,,,0.00,VWS V14.01,2013-02-08 06:25:00,
2013-02-08 16:30:00,88.3,71.7,29.56,SSE,158,8.1,8.1,58,0.00,,,0.00,VWS V14.01,2013-02-08 06:30:00,
2013-02-08 16:35:00,88.2,71.5,29.56,SSE,158,8.1,8.1,58,0.00,,,0.00,VWS V14.01,2013-02-08 06:35:00,
2013-02-08 16:40:00,87.3,71.7,29.56,SSE,158,8.1,8.1,60,0.00,,,0.00,VWS V14.01,2013-02-08 06:40:00,
2013-02-08 16:45:00,87.1,71.5,29.56,SSE,158,8.1,8.1,60,0.00,,,0.00,VWS V14.01,2013-02-08 06:45:00,
2013-02-08 16:50:00,87.1,71.5,29.56,SSE,158,8.1,8.1,60,0.00,,,0.00,VWS V14.01,2013-02-08 06:50:00,
2013-02-08 16:55:00,86.9,71.8,29.56,SSE,158,8.1,8.1,61,0.00,,,0.00,VWS V14.01,2013-02-08 06:55:00,
2013-02-08 17:00:00,86.4,71.3,29.56,SSE,158,8.1,8.1,61,0.00,,,0.00,VWS V14.01,2013-02-08 07:00:00,
2013-02-08 17:05:00,85.5,71.4,29.56,SSE,158,8.1,8.1,63,0.00,,,0.00,VWS V14.01,2013-02-08 07:05:00,
2013-02-08 17:10:00,85.6,71.6,29.56,SSE,158,8.1,8.1,63,0.00,,,0.00,VWS V14.01,2013-02-08 07:10:00,
2013-02-08 17:15:00,85.8,71.8,29.56,SSE,158,8.1,8.1,63,0.00,,,0.00,VWS V14.01,2013-02-08 07:15:00,
2013-02-08 17:20:00,85.6,71.6,29.56,SE,135,4.9,4.9,63,0.00,,,0.00,VWS V14.01,2013-02-08 07:20:00,
2013-02-08 17:25:00,85.3,71.3,29.56,SE,135,4.9,4.9,63,0.00,,,0.00,VWS V14.01,2013-02-08 07:25:00,
2013-02-08 17:31:00,84.9,71.4,29.56,SE,135,4.9,4.9,64,0.00,,,0.00,VWS V14.01,2013-02-08 07:31:00,
2013-02-08 17:36:00,85.1,71.6,29.56,SE,135,4.9,4.9,64,0.00,,,0.00,VWS V14.01,2013-02-08 07:36:00,
2013-02-08 17:41:00,84.9,71.4,29.56,SE,135,4.9,4.9,64,0.00,,,0.00,VWS V14.01,2013-02-08 07:41:00,
2013-02-08 17:46:00,84.9,71.4,29.59,SE,135,4.9,4.9,64,0.00,,,0.00,VWS V14.01,2013-02-08 07:46:00,